sat.trackr.live / text

‹ back to catalog

STARLINK-37176

NORAD 68615 · 2026-073P

PAYLOAD ACTIVE UNKNOWN

§ Identity

Operator
Country
US
Launch date
2026-04-07
Launch site
AFWTR
Launch vehicle
Mass (kg)
RCS (m²)

Purposes: comms

External: N2YO · Heavens-Above · Gunter

§ Orbital elements

Epoch: 2026-05-25T04:00:03.998880Z

Period
92.19 min
Inclination
97.2842°
Eccentricity
0.0002184
Mean motion
15.62055955 rev/d
Perigee alt
380.2 km
Apogee alt
383.2 km
Semi-major
6,759.9 km
B*
-3.5187e-2
RAAN
344.7311°
Arg perigee
82.0247°
Mean anomaly
42.3982°
Rev number
595

§ Raw data

STARLINK-371761 68615U 26073P   26145.16671295 -.02652699  00000+0 -35187-1 0  99942 68615  97.2842 344.7311 0002184  82.0247  42.3982 15.62055955  5951

JSON: /api/v1/satellites/68615 · /tle

For live sub-satellite position, see the globe view (requires WebGL).

§ Visibility from observer

Set your observer location to see the next 7 days of passes ≥ 10°. The values pass through the URL so the page stays shareable.

No JS? Fill the form by hand. The geolocation button needs JavaScript.